Location: Stara Lesna
(49.1528°N, 20.2911°E)
Time: 18:10:26
(UTC+02:00)

ARIANE 5 R/B - Pass Details

Date: 21 September 2019
Orbit: 748 x 796 km, 98.6° (Epoch: 21 October)

Event Time Altitude Azimuth Distance (km) Brightness Sun altitude
Rises 02:14:53 0° 25° (NNE) 3,264 6.8 -35.3°
Reaches altitude 10° 02:17:42 10° 40° (NE) 2,323 5.8 -35.0°
Enters shadow 02:21:15 22° 84° (E) 1,610 4.4 -34.7°
